Погода в Гомеле

Погода в Гомеле : погода сейчас, прогноз погоды и архив. Всё, что Вы хотите узнать о погоде в Гомеле!

Хотите узнать прогноз погоды в Гомеле? Тогда Вам сюда: Погода в Гомеле

Поиск расширенной информации на нашем сайте:

Другие новости

Новости СМИ2

Главная страница сайта

Новости сайта

03.07.2017

Напоминаем, что на нашем специализированном сайте Метеоцентр.Азия вы можете получить высокодетализированные автоматические прогнозы погоды по пунктам России, СНГ и мира в авиационном формате (включающие направление и скорость ветра, видимость, явления погоды, количество и форму облачности, нижнюю и верхнюю границу облачности).


Погода в Гомеле - сегодня

Время (UTC), дата Ветер
(°,м/с) 
Видим.   Явления Облачность Т
(°С)
Тd
(°С)
f(%) Тe
(°С)
Pmin
(гПа)
dP
(гПа)
Po
(мм)
O2
(г/м3)
Тmin Tmax R s Состояние
почвы
12 11.12.17 170 (Ю) 15000 м    10/5 1000 м средняя 
[Sc|Ac As]
-1.1 -3.3 85 -2  1006.8  -0.2  743  301           
15 11.12.17 190 (Ю) 17000 м    10/3 1000 м средняя 
[Sc|Ac As]
-1.1 -3.3 85 -3  1008.9  2.1  745  302           
18 11.12.17 140 (ЮВ) 8000 м  слаб. ливневой снег  10/10 360 м 
[Sc]
-0.6 -1.1 96 1009.2  0.3  745  301    -0.6   
21 11.12.17 130 (ЮВ) 9000 м  дымка{ливн. осадки, снег}  9/9 1170 м 
[Sc]
-1.2 -2 94 -2  1009.2  745  302           
00 12.12.17 140 (ЮВ) 9000 м  дымка{ливн. осадки, снег}  9/9 1320 м 
[Sc]
-0.9 -1.7 94 -2  1009.2  745  301           
03 12.12.17 130 (ЮВ) 8000 м  дымка  10/10 1200 м 
[Sc]
+0.1 -0.8 94 -2  1008.4  -0.8  744  300      0.2   
06 12.12.17 140 (ЮВ) 9000 м  дымка{ливн. осадки}  10/10 1500 м 
[Sc]
+0.8 -0.1 94 +1  1008  -0.3  744  299  -1.5    0.3  равномерный
мокрый или
старый снег
100% 
09 12.12.17 160 (Ю) 10 км    10/5 1500 м средняя 
[Sc|Ac As]
+1.3 +0.2 92 +1  1008.2  0.2  744  298           
12 12.12.17 150 (ЮВ) 12000 м    10/3 1500 м средняя 
[Sc|Ac As]
+2.1 +0.8 91 +1  1007.2  -0.9  744  297           
15 12.12.17 190 (Ю) 10 км    10/0 средняя 
[Ac As]
+2.3 +0.9 90 +2  1008  0.8  744  297           
18 12.12.17 190 (Ю) 15000 м    9/0 средняя 
[Ac und]
+3.2 +1.1 86 +1  1008.9  0.9  745  297    +3.3     
21 12.12.17 190 (Ю) 15000 м    9/0 средняя 
[Ac und]
+4.5 +2.2 85 +3  1009.3  0.5  745  295           
00 13.12.17 230 (ЮЗ) 10 км    4/0 средняя, верхняя 
[Ac trans|Ci fib]
+3.1 +2.2 94 +3  1010.2  0.8  746  297           
03 13.12.17 230 (ЮЗ) 10 км    10/0 средняя 
[Ac As]
+3.2 +2.5 95 +4  1011.7  1.5  747  297         
06 13.12.17 240 (ЮЗ) 10 км  в посл. час ливневой дождь  10/10 1350 м кучево-дожд. 
[Cb cap]
+3.3 +3.1 99 +4  1012.8  1.1  748  297  +2.8    0.0  мокрый или
старый снег
50-90% 
09 13.12.17 260 (З) 5000 м  слаб. ливневой снег  10/10 360 м кучево-дожд. 
[Cb cap]
+0.5 +0.3 99 +1  1016.1  750  302           
12 13.12.17 180 (Ю) 6000 м  в посл. час ливневой снег  10/10 400 м 
[Sc]
+0.5 +0.4 99 +1  1014.8  -1.2  749  301           
15 13.12.17 180 (Ю) 8000 м  дымка  10/6 1170 м средняя 
[Sc|Ac As]
+0.7 +0.5 99 +1  1015.1  0.3  749  301         
18 13.12.17 180 (Ю) 6000 м  дымка  9/3 600 м средняя 
[Sc|Ac und]
+0.4 +0.1 98 +1  1015.3  0.2  750  302    +5.1  <0.5   
21 13.12.17 тихо ()   0400 м  туман  ?/?  
-0.1 -0.1 100 -0  1014.5  -0.9  749  302           
00 14.12.17 тихо ()   0200 м  переохл. туман [диам. гололёда 0 мм]  ?/?  
-0.9 -0.9 100 -1  1013  -1.5  748  302           
03 14.12.17 100 (В) 0200 м  переохл. туман [диам. гололёда 1 мм]  ?/?  
-1.1 -1.1 100 -1  1011.3  -1.7  747  302        <0.5   
06 14.12.17 130 (ЮВ) 0300 м  переохл. туман [диам. гололёда 1 мм]  ?/?  
-0.8 -0.8 100 1009.7  -1.5  745  301  -1.1      <0.5  мокрый или
старый снег
10-40% 
09 14.12.17 110 (В) 1600 м  в посл. час туман [диам. гололёда 1 мм]  10/10 60 м 
[St]
-0.2 -0.5 98 1008.7  -1  745  300           
12 14.12.17 140 (ЮВ) 8000 м  дымка{туман}  10/10 630 м 
[Sc]
+0.9 +0.7 99 +2  1006.5  -2.1  743  298           
Время (UTC), дата Ветер
(°,м/с) 
Видим.   Явления Облачность Т
(°С)
Тd
(°С)
f(%) Тe
(°С)
Pmin
(гПа)
dP
(гПа)
Po
(мм)
O2
(г/м3)
Тmin Tmax R s Состояние
почвы

Для получения пояснительной информации подведите курсор к названию столбца.

ПОГОДА в Гомеле - архив

Всё, что Вы хотите узнать о погоде в Гомеле - удобно и подробно!

Выберите нужную дату (начиная с 1 января 2015* года) и нажмите кнопку "Найти".
Будут отображены архивные сводки погоды по пункту Гомель, начиная с указанной даты.


Отображать данные в формате CSV (для использования в таблицах Excel)


Внимание! Наш архив погоды предназначен исключительно для личного некоммерческого использования в познавательных целях. Если Вам необходимы официальные справки о состоянии погоды (для производственных, юридических, коммерческих и т.п. целей), обращайтесь в органы Росгидромета.

*Примечание: данная дата относится к архиву по метеостанциям СССР (Россия, СНГ, Балтия).
Архив по метеостанциям Зарубежной Европы и Азии (кроме Китая) хранится 10 дней, по другим регионам земного шара (Китай, Африка, Америка, Австралия, Океания) - 1 день.

Гомель - район местоположения метеостанции


Название, широта, долгота, высота метеостанции:
Гомель (город) 52.4°ш. 30.9°д. 126 м над ур. моря [Беларусь]

Дополнительная информация

В oтличие oт бoльшинства пoгoдных сайтoв мы публикуем пoдрoбную метеoинфoрмацию в детальнoм прoфессиoнальнoм фoрмате.

Характеристики температуры и влажнoсти вoздуха измеряются на высoте 2 м в тени вдали oт зданий и деревьев.
Скoрoсть ветра измеряется на высoте 10 м (на урoвне рoста челoвека скoрoсть ветра ниже в 1.5-2 раза). Если метеoстанция нахoдится в гoрoде или в лесу, тo скoрoсть ветра занижена на 2-4 м/с пo сравнению с oткрытым местoм. Скoрoсть ветра над акватoриями крупных рек и oзёр, а также на вершинах хoлмoв на 2-5 м/с выше, чем в oбычных услoвиях.
Атмoсфернoе давление в разных тoчках местнoсти мoжет значительнo oтличаться oт давления на метеoстанции, в зависимoсти oт услoвий рельефа (при пoдъёме на 10 м давление пoнижается примернo на 1 мм рт.ст.).